Syracuse, NY

1:21 PM EST on November 24, 2017 (GMT -0500)
Syracuse Hancock International

Weather History for KSYR - January, 2013

Change the Weather History Date:

Thursday, January 3, 2013

  Actual Average Record
Temperature  
Mean Temperature 15 °F 24 °F  
Max Temperature 30 °F 32 °F 62 °F (1950)
Min Temperature 0 °F 17 °F -12 °F (1904)
Degree Days  
Heating Degree Days 50 41  
Month to date heating degree days 137 121  
Since 1 July heating degree days 2255 2574  
Cooling Degree Days 0 0  
Month to date cooling degree days 0 0  
Year to date cooling degree days 0 0  
Moisture  
Dew Point 7 °F    
Average Humidity 73    
Maximum Humidity 84    
Minimum Humidity 62    
Precipitation  
Precipitation 0.02 in 0.09 in 1.24 in (1913)
Month to date precipitation 0.06 0.27  
Year to date precipitation 0.06 0.27  
Snow  
Snow 1.60 in 1.00 in 14.60 in (2010)
Month to date snowfall 3.9 3.1  
Since 1 July snowfall 39.1 45.7  
Snow Depth 14.00 in    
Sea Level Pressure  
Sea Level Pressure 30.07 in    
Wind  
Wind Speed 7 mph (ESE)    
Max Wind Speed 23 mph    
Max Gust Speed 30 mph    
Visibility 5 miles    
Events Snow    
T = Trace of Precipitation, MM = Missing Value Source: NWS Daily Summary

Daily Weather History Graph

Daily Weather History Graph

Search for Another Location

Airport or City:

Trip Planner

Search our weather history database for the weather conditions in past years. The results will help you decide how hot, cold, wet, or windy it might be!

Date:

Astronomy

Jan. 03, 2013 Rise Set
Actual Time 7:36 AM EST 4:42 PM EST
Civil Twilight 7:04 AM EST 5:14 PM EST
Nautical Twilight 6:28 AM EST 5:50 PM EST
Astronomical Twilight 5:53 AM EST 6:24 PM EST
Moon 11:26 PM EST (1/3) 10:36 AM EST (1/3)
Length of Visible Light 10h 10m
Length of Day
9h 05m
Waning Gibbous, 65% of the Moon is Illuminated
Jan 3
Waning Gibbous
Jan 4
Last Quarter
Jan 11
New
Jan 18
First Quarter
Jan 26
Full

Hourly Weather History & Observations

Time (EST) Temp. Windchill Dew Point Humidity Pressure Visibility Wind Dir Wind Speed Gust Speed Precip Events Conditions
12:54 AM 8.1 °F - -2.9 °F 61% 30.25 in 9.0 mi Calm Calm - 0.00 in Snow Light Snow
1:54 AM 5.0 °F -4.1 °F -5.1 °F 63% 30.24 in 9.0 mi East 4.6 mph - 0.00 in   Overcast
2:54 AM 3.0 °F -6.4 °F -7.1 °F 63% 30.24 in 10.0 mi East 4.6 mph - N/A   Overcast
3:54 AM 3.0 °F -9.3 °F -7.1 °F 63% 30.22 in 10.0 mi East 6.9 mph - N/A   Overcast
4:54 AM 1.9 °F -10.6 °F -8.0 °F 63% 30.21 in 10.0 mi East 6.9 mph - 0.00 in Snow Light Snow
5:54 AM -0.0 °F -13.0 °F -9.0 °F 66% 30.20 in 9.0 mi East 6.9 mph - 0.00 in Snow Light Snow
6:54 AM -0.0 °F -13.0 °F -8.0 °F 69% 30.20 in 9.0 mi East 6.9 mph - 0.00 in Snow Light Snow
7:54 AM 1.0 °F -6.7 °F -7.1 °F 69% 30.19 in 9.0 mi East 3.5 mph - 0.00 in Snow Light Snow
8:50 AM 1.4 °F -6.2 °F -5.8 °F 72% 30.16 in 2.5 mi East 3.5 mph - 0.00 in Snow Light Snow
8:54 AM 1.9 °F -7.6 °F -5.1 °F 72% 30.18 in 2.0 mi East 4.6 mph - 0.00 in Snow Light Snow
9:08 AM 1.4 °F -6.2 °F -4.0 °F 78% 30.16 in 1.8 mi East 3.5 mph - 0.00 in Snow Light Snow
9:24 AM 1.4 °F -8.3 °F -4.0 °F 78% 30.15 in 1.5 mi East 4.6 mph - 0.00 in Snow Light Snow
9:44 AM 3.2 °F -7.8 °F -2.2 °F 78% 30.15 in 2.0 mi East 5.8 mph - 0.00 in Snow Light Snow
9:54 AM 3.9 °F -6.9 °F -2.0 °F 76% 30.16 in 2.0 mi East 5.8 mph - 0.00 in Snow Light Snow
10:02 AM 3.2 °F -7.8 °F -2.2 °F 78% 30.14 in 3.0 mi ESE 5.8 mph - 0.00 in Snow Light Snow
10:54 AM 7.0 °F -1.7 °F -0.0 °F 73% 30.14 in 4.0 mi ESE 4.6 mph - 0.00 in Snow Light Snow
11:21 AM 8.6 °F 2.0 °F 1.4 °F 73% 30.12 in 2.5 mi ESE 3.5 mph - 0.00 in Snow Light Snow
11:31 AM 8.6 °F 2.0 °F 1.4 °F 73% 30.11 in 3.0 mi ESE 3.5 mph - 0.00 in Snow Light Snow
11:54 AM 10.0 °F 3.6 °F 3.0 °F 73% 30.11 in 4.0 mi ESE 3.5 mph - 0.00 in Snow Light Snow
12:54 PM 12.9 °F 5.2 °F 6.1 °F 74% 30.07 in 10.0 mi ESE 4.6 mph - 0.00 in   Overcast
1:27 PM 14.0 °F 6.5 °F 6.8 °F 73% 30.03 in 2.5 mi ESE 4.6 mph - 0.00 in Snow Light Snow
1:43 PM 15.8 °F 8.6 °F 8.6 °F 73% 30.02 in 1.5 mi ESE 4.6 mph - 0.00 in Snow Light Snow
1:54 PM 15.1 °F 9.4 °F 8.1 °F 74% 30.04 in 2.5 mi ESE 3.5 mph - 0.00 in Snow Light Snow
2:18 PM 15.8 °F 7.2 °F 8.6 °F 73% 30.01 in 1.8 mi East 5.8 mph - 0.00 in Snow Light Snow
2:29 PM 15.8 °F 8.6 °F 10.4 °F 79% 30.01 in 0.8 mi East 4.6 mph - 0.00 in Snow Light Snow
2:36 PM 15.8 °F 10.2 °F 10.4 °F 79% 30.01 in 1.0 mi East 3.5 mph - 0.00 in Snow Light Snow
2:49 PM 15.8 °F 10.2 °F 10.4 °F 79% 30.00 in 3.0 mi East 3.5 mph - 0.00 in Snow Light Snow
2:54 PM 16.0 °F 8.8 °F 10.9 °F 81% 30.02 in 3.0 mi East 4.6 mph - 0.00 in Snow Light Snow
2:58 PM 15.8 °F 8.6 °F 10.4 °F 79% 30.00 in 2.5 mi East 4.6 mph - 0.00 in Snow Light Snow
3:10 PM 17.6 °F 10.7 °F 10.4 °F 73% 30.00 in 1.2 mi East 4.6 mph - 0.01 in Snow Light Snow
3:27 PM 17.6 °F 12.3 °F 12.2 °F 79% 30.00 in 2.0 mi East 3.5 mph - 0.01 in Snow Light Snow
3:54 PM 18.0 °F 11.1 °F 12.0 °F 78% 30.01 in 3.0 mi East 4.6 mph - 0.01 in Snow Light Snow
4:54 PM 18.0 °F 11.1 °F 12.9 °F 81% 30.00 in 3.0 mi East 4.6 mph - 0.00 in Snow Light Snow
5:43 PM 19.4 °F 14.3 °F 14.0 °F 80% 29.99 in 2.0 mi East 3.5 mph - 0.00 in Snow Light Snow
5:54 PM 19.9 °F - 15.1 °F 81% 30.00 in 2.0 mi Calm Calm - 0.00 in Snow Light Snow
6:00 PM 19.4 °F 14.3 °F 15.8 °F 86% 29.98 in 2.0 mi East 3.5 mph - 0.00 in Snow Light Snow
6:17 PM 19.4 °F 14.3 °F 15.8 °F 86% 29.98 in 1.8 mi East 3.5 mph - 0.00 in Snow Light Snow
6:54 PM 21.9 °F 17.2 °F 18.0 °F 85% 29.99 in 2.0 mi SSW 3.5 mph - 0.00 in Snow Light Snow
7:16 PM 28.4 °F 21.2 °F 21.2 °F 74% 29.97 in 3.0 mi SW 6.9 mph - 0.01 in Snow Light Snow
7:29 PM 28.4 °F 22.2 °F 21.2 °F 74% 29.97 in 2.5 mi SW 5.8 mph - 0.01 in Snow Light Snow
7:54 PM 28.9 °F 19.8 °F 23.0 °F 78% 29.99 in 2.5 mi SW 10.4 mph - 0.01 in Snow Light Snow
8:16 PM 28.4 °F 19.1 °F 23.0 °F 80% 29.97 in 4.0 mi WSW 10.4 mph - 0.00 in Snow Light Snow
8:54 PM 30.0 °F 19.5 °F 23.0 °F 75% 29.98 in 6.0 mi WSW 13.8 mph - 0.00 in Snow Light Snow
9:44 PM 30.2 °F 18.5 °F 23.0 °F 75% 29.97 in 8.0 mi WSW 17.3 mph - 0.00 in Snow Light Snow
9:54 PM 30.0 °F 18.3 °F 21.9 °F 72% 29.99 in 9.0 mi WSW 17.3 mph - 0.00 in Snow Light Snow
10:34 PM 30.2 °F 17.4 °F 23.0 °F 75% 29.97 in 10.0 mi WSW 20.7 mph - 0.00 in   Overcast
10:54 PM 30.0 °F 19.1 °F 21.9 °F 72% 29.98 in 9.0 mi WSW 15.0 mph - 0.00 in Snow Light Snow
11:54 PM 30.0 °F 18.7 °F 21.9 °F 72% 29.97 in 9.0 mi WSW 16.1 mph - 0.00 in Snow Light Snow